Regional Weather Roundup
Issued by NWS Green Bay, WI

Home | Current Version | Previous Version | Graphics & Text | Print | Product List | Glossary Off
Versions: 1 2 3 4 5 6 7 8 9 10 11 12 13 14 15 16 17 18 19 20 21 22 23 24 25 26 27 28 29 30 31 32 33 34 35 36 37 38 39 40 41 42 43 44 45 46 47 48 49 50

000
ASUS43 KGRB 200659
RWRGRB

NORTH-CENTRAL AND NORTHEAST WISCONSIN REGIONAL WEATHER ROUNDUP
NATIONAL WEATHER SERVICE GREEN BAY WI
200 AM CDT SAT SEP 20 2014

WIZ005-009-010>012-018-019-200800-
NORTH CENTRAL WISCONSIN

CITY           SKY/WX    TMP DP  RH WIND       PRES   REMARKS
IRONWOOD       PTCLDY    66  63  88 SW10      29.61F
MANITOWISH WTR NOT AVBL
ARBOR VITAE    NOT AVBL
EAGLE RIVER    NOT AVBL
LAND O LAKES   NOT AVBL
RHINELANDER    CLOUDY    62  57  83 SW13G22   29.70F
PHILLIPS       CLOUDY    64  61  88 SW10      29.68F
ANTIGO         NOT AVBL
TOMAHAWK       NOT AVBL
MERRILL        NOT AVBL
$$

WIZ013-073-200800-
NORTHEAST WISCONSIN

CITY           SKY/WX    TMP DP  RH WIND       PRES   REMARKS
IRON MOUNTAIN  PTCLDY    62  54  74 S8        29.69S
MARINETTE      CLOUDY    63  54  72 SW7       29.73R
$$

WIZ017-030-035>037-045-200800-
CENTRAL WISCONSIN

CITY           SKY/WX    TMP DP  RH WIND       PRES   REMARKS
MEDFORD        NOT AVBL
WAUSAU         MOCLDY    64  57  78 SW10      29.70F
MOSINEE        CLOUDY    63  59  88 S12G17    29.74F
MARSHFIELD     LGT RAIN  65  59  81 SW10      29.72F
WISC RAPIDS    CLOUDY    64  59  83 SW12      29.77S
STEVENS POINT  NOT AVBL
WAUPACA        NOT AVBL
SHAWANO        CLOUDY    65  55  68 SW6       29.74S
CLINTONVILLE   CLOUDY    63  54  72 SW9       29.73F
$$

WIZ038-039-048-051-200800-
FOX VALLEY

CITY           SKY/WX    TMP DP  RH WIND       PRES   REMARKS
NWS GREEN BAY  CLOUDY    65  55  70 SW13G22   29.75F
APPLETON       NOT AVBL
OSHKOSH        MOCLDY    65  55  70 SW15G22   29.76F
FOND DU LAC    PTCLDY    65  53  65 SW17G25   29.78F
$$

WIZ022-050-052-200800-
EAST CENTRAL WISCONSIN

CITY           SKY/WX    TMP DP  RH WIND       PRES   REMARKS
STURGEON BAY   CLOUDY    61  52  72 S12       29.76R
MANITOWOC      NOT AVBL
SHEBOYGAN      PTCLDY    63  52  67 SW13G18   29.80F
$$

LMZ563-521-522-541>543-200800-
LAKESHORE

STATION/POSITION TIME  TEMP    WIND        PRES    VSBY  WAVE
                       AIR SEA DIR/SP/G                  HT/PER
                 (UTC) (F)     (DEG/KT/KT) (MB)    (MI)  (FT/S)
SHEBOYGAN LKSHOR 0600   60 54  180/ 16/ 17 1010.1F
KEWAUNEE LKSHORE 0600   57     180/ 12/ 14 1007.5F
NORTHPORT PIER   0600   61     170/  7/ 17 1007.5F
N MID LAKE BUOY  0600   61 58  210/ 25/ 31 1007.4F        10/ 8
S GREEN BAY BUOY 0600   64     VRB 17/ 21  1007.6F
CHAMBERS ISLAND  0600   63     160/  7/ 17 1006.8F
MENOMINEE LKSHOR 0600   65     210/ 14/ 18 1007.9F
$$


USA.gov is the U.S. government's official web portal to all federal, state and local government web resources and services.